This demonstration page uses our WeatherBlox Daily Observations layout. Learn more.

Left ArrowRight Arrow

Hourly Observations for July 1, 2022

Temp ( °F °C ) Dew Point ( °F °C ) Humidity (%) Winds ( mph kmh ) Pressure ( in mb ) Visibility ( mi km ) Precip ( " mm )
12:53 am 00:53 Clear 72 22.2 46 7.8 40 40 NNE 3 6 29.90 1012 10 16 0.00 0.00
1:53 am 01:53 Clear 72 22.2 42 5.6 34 34 Calm 29.90 1013 10 16 0.00 0.00
2:53 am 02:53 Clear 68 20 44 6.7 42 42 NW 3 6 29.91 1013 10 16 0.00 0.00
3:53 am 03:53 Clear 66 18.9 45 7.2 47 47 Calm 29.91 1013 10 16 0.00 0.00
4:53 am 04:53 Clear 65 18.3 45 7.2 49 49 Calm 29.92 1013 10 16 0.00 0.00
5:53 am 05:53 Sunny 64 17.8 43 6.1 46 46 Calm 29.93 1014 10 16 0.00 0.00
6:53 am 06:53 Sunny 67 19.4 43 6.1 42 42 Calm 29.94 1014 10 16 0.00 0.00
7:53 am 07:53 Sunny 71 21.7 52 11.1 51 51 VRB 3 6 29.95 1014 10 16 0.00 0.00
8:53 am 08:53 Sunny 74 23.3 52 11.1 46 46 SSW 5 7 29.95 1014 10 16 0.00 0.00
9:53 am 09:53 Sunny 77 25 52 11.1 42 42 VRB 3 6 29.93 1014 10 16 0.00 0.00
10:53 am 10:53 Sunny 82 27.8 52 11.1 35 35 SSE 5 7 29.93 1013 10 16 0.00 0.00
11:53 am 11:53 Sunny 85 29.4 49 9.4 29 29 S 5 7 29.91 1013 10 16 0.00 0.00
12:53 pm 12:53 Sunny 89 31.7 47 8.3 23 23 SSW 9 15 29.89 1012 10 16 0.00 0.00
1:53 pm 13:53 Sunny 92 33.3 38 3.3 15 15 VRB 6 9 29.87 1012 10 16 0.00 0.00
2:53 pm 14:53 Sunny 94 34.4 36 2.2 13 13 SW 9 15 29.85 1011 10 16 0.00 0.00
3:53 pm 15:53 Sunny 94 34.4 37 2.8 14 14 SSW 12 19 29.83 1010 10 16 0.00 0.00
4:53 pm 16:53 Sunny 95 35 31 -0.6 10 10 S 12 19 29.82 1010 10 16 0.00 0.00
5:53 pm 17:53 Sunny 95 35 35 1.7 12 12 SSE 10 17 29.80 1009 10 16 0.00 0.00
6:53 pm 18:53 Sunny 93 33.9 34 1.1 12 12 SSE 13 20 29.78 1009 10 16 0.00 0.00
7:53 pm 19:53 Sunny 91 32.8 42 5.6 18 18 S 10 17 29.79 1009 10 16 0.00 0.00
8:53 pm 20:53 Clear 87 30.6 43 6.1 21 21 S 9 15 29.79 1009 10 16 0.00 0.00
9:53 pm 21:53 Clear 82 27.8 45 7.2 27 27 ESE 5 7 29.81 1009 10 16 0.00 0.00
10:53 pm 22:53 Clear 78 25.6 47 8.3 33 33 Calm 29.82 1010 10 16 0.00 0.00
11:53 pm 23:53 Clear 77 25 47 8.3 35 35 Calm 29.82 1010 10 16 0.00 0.00

Powered by AerisWeather